| time (UTC) | temp C | wind direction | speed KPH | gust KPH | rain 1hr cm | rain 24hr cm | rain mn cm | humidity % | barometer mb |
| 20260504081546 | 5 | 319 | 0.0 | 0.0 | 0.00 | 0.00 | 0.00 | 90 | 1017.6 |
| 20260504050014 | 7 | 319 | 0.0 | 0.0 | 0.00 | 0.00 | 0.00 | 84 | 1017.8 |
| 20260504044516 | 7 | 319 | 0.0 | 0.0 | 0.00 | 0.00 | 0.00 | 83 | 1017.8 |
| 20260504043021 | 8 | 319 | 0.0 | 0.0 | 0.00 | 0.00 | 0.00 | 81 | 1017.8 |
| 20260504041526 | 8 | 319 | 0.0 | 0.0 | 0.00 | 0.00 | 0.00 | 81 | 1017.8 |
| 20260504040012 | 8 | 319 | 0.0 | 0.0 | 0.00 | 0.00 | 0.00 | 80 | 1018.0 |
| 20260504034531 | 8 | 319 | 0.0 | 0.0 | 0.00 | 0.00 | 0.00 | 78 | 1017.9 |
| 20260504033027 | 9 | 319 | 0.0 | 0.0 | 0.00 | 0.00 | 0.00 | 77 | 1018.0 |
| 20260504031528 | 9 | 319 | 0.0 | 0.0 | 0.00 | 0.00 | 0.00 | 76 | 1018.1 |
| 20260504030014 | 10 | 319 | 0.0 | 0.0 | 0.00 | 0.00 | 0.00 | 75 | 1017.7 |
| 20260504024519 | 10 | 319 | 0.0 | 0.0 | 0.00 | 0.00 | 0.00 | 74 | 1017.6 |
| 20260504023026 | 10 | 319 | 0.0 | 0.0 | 0.00 | 0.00 | 0.00 | 72 | 1017.6 |
| 20260504021530 | 11 | 319 | 0.0 | 0.0 | 0.00 | 0.00 | 0.00 | 71 | 1017.5 |
| 20260504020012 | 11 | 319 | 0.0 | 0.0 | 0.00 | 0.00 | 0.00 | 68 | 1017.3 |
| 20260504014520 | 12 | 319 | 0.0 | 0.0 | 0.00 | 0.00 | 0.00 | 67 | 1017.1 |
| 20260504013023 | 12 | 319 | 0.0 | 0.0 | 0.00 | 0.00 | 0.00 | 64 | 1016.8 |
| 20260504011526 | 13 | 319 | 0.0 | 0.0 | 0.00 | 0.00 | 0.00 | 63 | 1016.6 |
| 20260504010011 | 14 | 319 | 0.0 | 0.0 | 0.00 | 0.00 | 0.00 | 60 | 1016.5 |
| 20260504004520 | 15 | 319 | 0.0 | 0.0 | 0.00 | 0.00 | 0.00 | 57 | 1016.3 |
| 20260504003021 | 16 | 319 | 0.0 | 0.0 | 0.00 | 0.00 | 0.00 | 53 | 1016.3 |
| 20260504001526 | 18 | 319 | 0.0 | 0.0 | 0.00 | 0.00 | 0.00 | 49 | 1016.2 |
| 20260504000012 | 20 | 319 | 0.0 | 0.0 | 0.00 | 0.00 | 0.00 | 46 | 1016.1 |
| 20260503234522 | 20 | 36 | 0.0 | 0.0 | 0.00 | 0.00 | 0.00 | 44 | 1016.0 |
| 20260503233021 | 21 | 360 | 0.0 | 3.2 | 0.00 | 0.00 | 0.00 | 41 | 1016.0 |
| 20260503231541 | 21 | 310 | 0.0 | 1.6 | 0.00 | 0.00 | 0.00 | 39 | 1016.0 |
| 20260503230014 | 21 | 9 | 1.6 | 8.0 | 0.00 | 0.00 | 0.00 | 38 | 1016.0 |
| 20260503224518 | 21 | 240 | 0.0 | 6.4 | 0.00 | 0.00 | 0.00 | 37 | 1016.0 |
| 20260503223025 | 21 | 12 | 0.0 | 12.9 | 0.00 | 0.00 | 0.00 | 36 | 1016.3 |
| 20260503221528 | 22 | 211 | 0.0 | 4.8 | 0.00 | 0.00 | 0.00 | 36 | 1016.2 |
| 20260503220018 | 22 | 55 | 0.0 | 6.4 | 0.00 | 0.00 | 0.00 | 35 | 1016.3 |
| 20260503214519 | 22 | 346 | 1.6 | 9.7 | 0.00 | 0.00 | 0.00 | 36 | 1016.3 |
| 20260503213029 | 22 | 349 | 1.6 | 12.9 | 0.00 | 0.00 | 0.00 | 37 | 1016.4 |
| 20260503211525 | 21 | 5 | 0.0 | 17.7 | 0.00 | 0.00 | 0.00 | 39 | 1016.4 |
| 20260503210016 | 22 | 346 | 1.6 | 12.9 | 0.00 | 0.00 | 0.00 | 37 | 1016.5 |
| 20260503204512 | 22 | 10 | 3.2 | 8.0 | 0.00 | 0.00 | 0.00 | 38 | 1016.8 |
| 20260503203022 | 21 | 360 | 0.0 | 17.7 | 0.00 | 0.00 | 0.00 | 39 | 1016.9 |
| 20260503201524 | 21 | 9 | 1.6 | 12.9 | 0.00 | 0.00 | 0.00 | 40 | 1017.1 |
| 20260503200007 | 21 | 214 | 0.0 | 8.0 | 0.00 | 0.00 | 0.00 | 39 | 1017.3 |
| 20260503194518 | 21 | 12 | 0.0 | 14.5 | 0.00 | 0.00 | 0.00 | 40 | 1017.7 |
| 20260503193018 | 21 | 259 | 1.6 | 14.5 | 0.00 | 0.00 | 0.00 | 40 | 1017.9 |
| 20260503191521 | 20 | 198 | 0.0 | 12.9 | 0.00 | 0.00 | 0.00 | 42 | 1018.5 |
| 20260503190004 | 21 | 331 | 0.0 | 12.9 | 0.00 | 0.00 | 0.00 | 40 | 1018.9 |
| 20260503184509 | 20 | 165 | 0.0 | 8.0 | 0.00 | 0.00 | 0.00 | 43 | 1018.9 |
| 20260503183014 | 20 | 17 | 1.6 | 11.3 | 0.00 | 0.00 | 0.00 | 41 | 1019.2 |
| 20260503181517 | 20 | 23 | 0.0 | 4.8 | 0.00 | 0.00 | 0.00 | 42 | 1019.3 |
| 20260503180103 | 19 | 211 | 0.0 | 9.7 | 0.00 | 0.00 | 0.00 | 41 | 1019.2 |
| 20260503174508 | 19 | 344 | 3.2 | 12.9 | 0.00 | 0.00 | 0.00 | 42 | 1019.4 |
| 20260503173012 | 18 | 355 | 0.0 | 6.4 | 0.00 | 0.00 | 0.00 | 41 | 1019.5 |
| 20260503171518 | 18 | 240 | 1.6 | 8.0 | 0.00 | 0.00 | 0.00 | 42 | 1019.6 |